Preview of NWS' New Version of Forecast
This preview is not operational and should not be used for support decisions.

Regional Weather Roundup (RWR)

Issued by Philadelphia/Mt Holly (PHI)

                            
000
ASUS41 KPHI 251912
RWRPHI

REGIONAL WEATHER ROUNDUP
NATIONAL WEATHER SERVICE MOUNT HOLLY NJ
300 PM EDT SAT MAY 25 2019

NOTE:  "FAIR" INDICATES FEW OR NO CLOUDS BELOW 12,000 FEET WITH NO
SIGNIFICANT WEATHER AND/OR OBSTRUCTIONS TO VISIBILITY.

 * = STATION DOES NOT REPORT PRECIPITATION (E.G. RAIN, SNOW, ETC.) 
        OR FOG.

NJZ015>026-252000-
SOUTHERN NEW JERSEY
  
CITY           SKY/WX    TMP DP  RH WIND       PRES   REMARKS
POMONA         PTSUNNY   68  51  54 SE10G21   30.20F                  
WILDWOOD*      PTSUNNY   68  54  60 SE12      30.21F                  
MILLVILLE      CLOUDY    70  54  56 S10       30.18F                  
WRIGHTSTOWN    MOSUNNY   72  52  49 S9        30.14F                  
MOUNT HOLLY    CLOUDY    73  54  51 S9        30.16F                  
TRENTON        CLOUDY    70  54  56 SW13      30.15F                  

$$
NJZ001>014-252000-
NORTHERN NEW JERSEY
  
CITY           SKY/WX    TMP DP  RH WIND       PRES   REMARKS
SUSSEX         CLOUDY    70  56  61 CALM      30.15F                  
ANDOVER*         N/A     67  53  61 S7        30.15F                  
MORRISTOWN     PTSUNNY   72  55  56 S7        30.16F                  
NEWARK         FAIR      69  50  50 SE15G21   30.17F                  
TETERBORO      FAIR      71  52  50 S13       30.15F                  
CALDWELL       PTSUNNY   73  52  47 VRB6G16   30.16F                  
SOMERVILLE     CLOUDY    70  55  59 S9        30.14F                  
ALLAIRE*       FAIR      66  46  48 SE10G20   30.20F                  
TOMS RIVER*    FAIR      71  49  45 SE15      30.19F                  

$$
PAZ043-044-047-054-055-060>062-066>071-252000-
EASTERN PENNSYLVANIA
  
CITY           SKY/WX    TMP DP  RH WIND       PRES   REMARKS
PHILADELPHIA   CLOUDY    73  54  51 S7        30.16F                  
NORTH PHILA    PTSUNNY   74  53  48 VRB6      30.17F                  
BLUE BELL*     CLOUDY    71  55  56 SE10      30.16F                  
DOYLESTOWN     PTSUNNY   71  53  52 S9G18     30.15F                  
QUAKERTOWN*    PTSUNNY   72  55  56 S10       30.15F                  
PERKASIE*      MOCLDY    68  54  60 S5        30.16F                  
POTTSTOWN      FAIR      70  55  59 VRB6      30.15F                  
LANCASTER      FAIR      75  60  59 S13G22    30.12F                  
COATESVILLE    FAIR      70  55  60 SE8G16    30.16F                  
WEST CHESTER   MOCLDY    70  54  56 SE5       30.15F                  
READING        PTSUNNY   72  59  63 S12G18    30.11F                  
ALLENTOWN      PTSUNNY   73  54  51 S12       30.14F                  
QN CITY/ALNTWN PTSUNNY   70  55  60 S8        30.15F                  
MOUNT POCONO   CLOUDY    63  54  72 S13G20    30.15F                  
HAZLETON       PTSUNNY   68  54  60 SE9       30.16F                  
LEHIGHTON      CLOUDY    70  54  56 S5        30.14F                  
WILKES BARRE   CLOUDY    70  54  56 VRB7      30.09F                  

$$
DEZALL-MDZ008-012-015-019-020-252000-
DELAWARE AND EASTERN MARYLAND
  
CITY           SKY/WX    TMP DP  RH WIND       PRES   REMARKS
WILMINGTON     FAIR      71  55  56 S18G24    30.17F                  
DOVER          MOSUNNY   68  57  68 SE15G21     N/A                   
CHESWOLD         N/A     70  57  64 SE10G18   30.16F                  
GEORGETOWN     FAIR      73  57  57 SE10G21   30.19F                  
EASTON         MOSUNNY   79  61  53 S10       30.18F                  
STEVENSVILLE   FAIR      77  61  57 SE15      30.13F                  
PATUXENT       FAIR      74  63  68 SE15G25   30.14                   
OCEAN CITY     FAIR      67  58  72 SE10      30.21F                  
WALLOPS ISLAND FAIR      72  60  66 E10       30.20F                  
CAMBRIDGE      MOSUNNY   77  61  57 S14G20    30.14F                  
SALISBURY      FAIR      73  59  61 SE12      30.18F                  

$$
PAZ001-021-NYZ056-072-MDZ011-DCZ001-252000-
OTHER NEARBY LOCATIONS
  
CITY           SKY/WX    TMP DP  RH WIND       PRES   REMARKS
HARRISBURG     FAIR      76  59  55 SE9       30.09F                  
STATE COLLEGE  SUNNY     75  61  60 S10       30.05F                  
WILLIAMSPORT   FAIR      75  55  49 SE10G24   30.04F                  
BINGHAMTON     FAIR      65  55  70 S14       30.05F                  
NEW YORK CITY  FAIR      69  50  50 SE9       30.20F                  
BALTIMORE      FAIR      77  61  57 SE15G22   30.11F                  
WASHINGTON DC  FAIR      81  62  52 S13       30.11F                  

$$